DW5430 Weather Reports


Display with metric or nautical units.
time (UTC)temp
F
wind
direction
speed
MPH
gust
MPH
rain 1hr
in
rain 24hr
in
rain mn
in
humidity
%
barometer
mb
20260510020050 80 259 17.0 35.0 0.00 0.00 0.00 11 1001.1
20260510014556 80 252 1.0 14.0 0.00 0.00 0.00 11 1001.2
20260510013058 81 249 4.0 15.0 0.00 0.00 0.00 11 1000.9
20260510011547 80 221 10.0 17.0 0.00 0.00 0.00 11 1001.0
20260510010055 81 309 10.0 27.0 0.00 0.00 0.00 10 1000.9
20260510004546 81 273 8.0 21.0 0.00 0.00 0.00 9 1000.7
20260510003045 82 286 6.0 16.0 0.00 0.00 0.00 9 1000.7
20260510001545 83 309 13.0 22.0 0.00 0.00 0.00 9 1000.8
20260510000044 83 320 9.0 18.0 0.00 0.00 0.00 8 1000.7
20260509234542 85 326 13.0 22.0 0.00 0.00 0.00 7 1000.8
20260509233041 84 12 11.0 22.0 0.00 0.00 0.00 7 1000.8
20260509231541 84 304 12.0 23.0 0.00 0.00 0.00 6 1000.9
20260509230043 84 323 12.0 27.0 0.00 0.00 0.00 6 1001.2
20260509224536 84 334 12.0 23.0 0.00 0.00 0.00 7 1001.3
20260509223038 84 274 22.0 28.0 0.00 0.00 0.00 6 1001.3
20260509221538 84 336 18.0 26.0 0.00 0.00 0.00 6 1001.6
20260509220034 84 13 15.0 29.0 0.00 0.00 0.00 6 1001.7
20260509214530 84 330 12.0 20.0 0.00 0.00 0.00 7 1001.9
20260509213030 83 11 8.0 26.0 0.00 0.00 0.00 7 1002.1
20260509211525 83 344 15.0 27.0 0.00 0.00 0.00 8 1002.6
20260509210023 83 319 10.0 22.0 0.00 0.00 0.00 8 1002.7
20260509204522 83 8 14.0 22.0 0.00 0.00 0.00 8 1003.1
20260509203024 83 309 13.0 27.0 0.00 0.00 0.00 8 1003.2
20260509201518 82 318 16.0 24.0 0.00 0.00 0.00 9 1003.6
20260509200016 83 316 12.0 20.0 0.00 0.00 0.00 9 1003.6
20260509194518 83 290 14.0 26.0 0.00 0.00 0.00 9 1003.7
20260509193020 82 342 23.0 33.0 0.00 0.00 0.00 10 1003.8
20260509191508 82 347 11.0 18.0 0.00 0.00 0.00 11 1004.2
20260509190008 81 338 15.0 20.0 0.00 0.00 0.00 11 1004.5
20260509184504 81 309 11.0 20.0 0.00 0.00 0.00 12 1004.6
20260509183002 80 305 9.0 17.0 0.00 0.00 0.00 12 1004.9
20260509181606 81 224 10.0 14.0 0.00 0.00 0.00 11 1005.0
20260509180115 79 266 5.0 16.0 0.00 0.00 0.00 12 1005.6
20260509174554 79 283 10.0 16.0 0.00 0.00 0.00 14 1006.0
20260509173103 77 291 6.0 14.0 0.00 0.00 0.00 15 1006.2
20260509171551 77 271 8.0 17.0 0.00 0.00 0.00 15 1006.4
20260509170048 77 260 8.0 13.0 0.00 0.00 0.00 15 1006.4
20260509164545 76 280 6.0 13.0 0.00 0.00 0.00 16 1006.6
20260509163042 74 316 5.0 11.0 0.00 0.00 0.00 16 1006.7
20260509161553 74 270 5.0 9.0 0.00 0.00 0.00 16 1006.8
20260509160038 71 295 4.0 9.0 0.00 0.00 0.00 18 1006.9
20260509154539 70 295 5.0 9.0 0.00 0.00 0.00 17 1007.0
20260509153050 70 274 3.0 13.0 0.00 0.00 0.00 18 1007.1
20260509151530 69 193 3.0 8.0 0.00 0.00 0.00 19 1007.0
20260509150026 67 200 0.0 3.0 0.00 0.00 0.00 21 1007.2
20260509144525 63 72 0.0 4.0 0.00 0.00 0.00 23 1007.3
20260509143024 64 39 1.0 4.0 0.00 0.00 0.00 23 1007.5
20260509141533 61 124 0.0 3.0 0.00 0.00 0.00 24 1007.3
20260509140123 60 44 3.0 5.0 0.00 0.00 0.00 25 1007.4
20260509134522 59 56 2.0 6.0 0.00 0.00 0.00 26 1007.3
20260509133023 57 112 1.0 4.0 0.00 0.00 0.00 28 1007.3
20260509131523 56 94 0.0 3.0 0.00 0.00 0.00 29 1007.2
20260509130018 56 47 4.0 5.0 0.00 0.00 0.00 28 1007.0
20260509124518 58 217 0.0 0.0 0.00 0.00 0.00 26 1006.7
20260509123014 57 179 3.0 5.0 0.00 0.00 0.00 26 1006.5
20260509121513 58 355 0.0 1.0 0.00 0.00 0.00 25 1006.6
20260509120011 57 138 0.0 5.0 0.00 0.00 0.00 26 1006.2
20260509114509 55 135 2.0 4.0 0.00 0.00 0.00 28 1006.0
20260509113008 55 116 0.0 3.0 0.00 0.00 0.00 28 1006.0
20260509111506 53 123 4.0 6.0 0.00 0.00 0.00 30 1005.9
20260509110004 53 92 3.0 5.0 0.00 0.00 0.00 30 1005.8
20260509104605 55 68 3.0 5.0 0.00 0.00 0.00 29 1005.7
20260509103106 56 229 0.0 0.0 0.00 0.00 0.00 27 1005.4
20260509101606 58 246 0.0 0.0 0.00 0.00 0.00 26 1005.2
20260509100051 59 248 0.0 0.0 0.00 0.00 0.00 25 1005.3
20260509094556 60 320 0.0 0.0 0.00 0.00 0.00 24 1005.2
20260509093048 62 217 2.0 5.0 0.00 0.00 0.00 22 1005.1
20260509091553 61 200 4.0 6.0 0.00 0.00 0.00 23 1005.2
20260509090054 60 207 3.0 6.0 0.00 0.00 0.00 24 1005.2
20260509084556 60 225 2.0 3.0 0.00 0.00 0.00 24 1005.3
20260509083143 62 221 0.0 0.0 0.00 0.00 0.00 22 1005.3
20260509081542 61 223 0.0 0.0 0.00 0.00 0.00 23 1005.1
20260509080047 61 235 2.0 4.0 0.00 0.00 0.00 22 1005.2
20260509074551 63 179 1.0 4.0 0.00 0.00 0.00 21 1005.2
20260509073045 64 176 0.0 0.0 0.00 0.00 0.00 19 1005.4
20260509071531 65 176 0.0 0.0 0.00 0.00 0.00 19 1005.2
20260509070029 66 176 0.0 0.0 0.00 0.00 0.00 18 1005.2
20260509064528 67 306 0.0 0.0 0.00 0.00 0.00 17 1005.4
20260509063031 65 260 0.0 3.0 0.00 0.00 0.00 19 1005.4
20260509061524 66 195 0.0 2.0 0.00 0.00 0.00 18 1005.3
20260509060026 68 270 0.0 0.0 0.00 0.00 0.00 17 1005.4
20260509054519 67 188 0.0 0.0 0.00 0.00 0.00 17 1005.2
20260509053029 67 65 0.0 0.0 0.00 0.00 0.00 16 1005.1
20260509051519 69 70 0.0 2.0 0.00 0.00 0.00 16 1005.2
20260509050016 70 46 0.0 4.0 0.00 0.00 0.00 15 1005.4
20260509044517 69 280 0.0 3.0 0.00 0.00 0.00 16 1005.4
20260509043036 69 224 0.0 0.0 0.00 0.00 0.00 15 1005.2
20260509041517 70 205 0.0 0.0 0.00 0.00 0.00 15 1005.2
20260509040014 70 213 0.0 0.0 0.00 0.00 0.00 14 1005.1
20260509034514 71 191 0.0 0.0 0.00 0.00 0.00 14 1005.1
20260509033014 71 181 0.0 0.0 0.00 0.00 0.00 14 1004.9
20260509031514 71 215 0.0 0.0 0.00 0.00 0.00 14 1004.7
20260509030013 72 226 0.0 0.0 0.00 0.00 0.00 13 1004.4
20260509024512 73 198 0.0 0.0 0.00 0.00 0.00 13 1004.3
20260509023013 74 291 0.0 4.0 0.00 0.00 0.00 12 1004.2